Tracking 22873 objects as of 23-Apr-2021
HD Live streaming from Space Station
objects crossing your sky now

STTW-T2

Track STTW-T2 now!
STTW-T2 is classified as:


NORAD ID: 14899
Int'l Code: 1984-035A
Perigee: 35,753.0 km
Apogee: 35,840.4 km
Inclination: 12.6 °
Period: 1,436.2 minutes
Semi major axis: 42167 km
RCS: 3.981 m2 (large)
Launch date: April 8, 1984
Source: People's Republic of China (PRC)
Launch site: Xichang Space Center, China (XSC)
aabbcc
Your satellite tracking list
Your tracking list is empty




NASA's NSSDC Master Catalog

Two Line Element Set (TLE):
1 14899U 84035A   21112.79015361  .00000046  00000-0  00000+0 0  9999
2 14899  12.6157 332.3543 0010366 120.4365  52.7738  1.00261254111225
Source of the keplerian elements: AFSPC